Location: Arthez
(43.0833°N, 0.2500°W)
Time: 22:40:33
(UTC+00:00)

deb Kosmos-970 - Pass Details

Date: 22 August 2022
Orbit: 900 x 1112 km, 65.8° (Epoch: 28 September)

Event Time Altitude Azimuth Distance (km) Brightness Sun altitude
Rises 21:33:59 0° 330° (NNW) 3,946 ? -25.5°
Reaches altitude 10° 21:37:12 10° 342° (NNW) 2,977 ? -25.9°
Maximum altitude 21:43:05 27° 38° (NE) 1,953 ? -26.6°
Enters shadow 21:45:38 22° 71° (ENE) 2,165 ? -26.9°
